Location: Oshawa
(43.9000°N, 78.8670°W)
Time: 00:16:36
(UTC-04:00)

Cosmos 1707 Rocket - Visible Passes

Search period start: 02 August 2015 00:00
Search period end: 12 August 2015 00:00
Orbit: 605 x 634 km, 82.5° (Epoch: 01 August)

Date Brightness Start Highest point End Pass type
(mag) Time Alt. Az. Time Alt. Az. Time Alt. Az.
02 Aug 6.6 04:25:38 10° E 04:26:52 11° E 04:28:21 10° ENE visible
03 Aug 6.0 04:40:54 10° SE 04:44:04 21° E 04:47:21 10° NE visible
04 Aug 5.0 04:57:21 10° SSE 05:01:19 37° E 05:05:21 10° NNE visible
05 Aug 3.8 05:14:21 10° S 05:18:39 70° E 05:22:59 10° NNE visible
06 Aug 6.4 03:57:08 10° ESE 03:58:40 12° E 04:00:25 10° ENE visible
06 Aug 3.6 05:31:47 10° SSW 05:36:04 62° W 05:40:22 10° N visible
07 Aug 5.8 04:12:36 10° SE 04:15:51 22° E 04:19:13 10° NE visible
08 Aug 4.8 04:29:06 10° SSE 04:33:07 39° E 04:37:11 10° NNE visible
09 Aug 3.7 04:46:10 10° S 04:50:27 75° E 04:54:47 10° NNE visible
10 Aug 6.3 03:28:39 10° ESE 03:30:26 13° E 03:32:26 10° ENE visible
10 Aug 3.6 05:04:00 12° SSW 05:07:52 58° W 05:12:09 10° N visible
11 Aug 5.6 03:44:37 11° SE 03:47:39 23° E 03:51:05 10° NE visible
11 Aug 4.4 05:21:48 11° SW 05:25:24 31° WNW 05:29:16 10° N visible
